Theta_e
303 311 307 303 303 303 303 305 306 306 304 302 304 303 303 301 300 300 300 299 298 298 297 296 295 294 294 295 296 297 299 300 301 303 305 306 307 309 309 312 310 317 321 323
307 310 302 302 303 303 305 308 308 304 303 303 304 303 303 301 300 299 299 298 298 297 296 295 293 293 294 294 295 297 299 300 302 303 303 305 306 308 308 312 312 313 317 321
308 304 301 302 303 304 305 306 305 304 303 303 302 305 303 302 301 299 298 298 297 296 294 294 293 293 293 294 295 295 296 299 302 302 303 305 306 307 310 312 312 317 317 320
306 302 301 303 303 302 306 302 302 303 302 308 302 307 303 303 301 299 298 297 296 294 293 293 293 292 292 293 294 294 295 299 302 303 303 304 307 308 308 310 312 317 317 316
311 302 303 304 302 301 304 302 302 300 302 303 305 306 303 301 301 298 297 296 295 293 292 292 292 291 292 293 293 293 296 298 302 303 303 304 307 308 308 310 312 314 315 314
304 299 299 302 301 301 301 303 304 300 304 310 302 301 302 302 297 297 297 295 294 292 292 291 291 291 292 292 293 293 295 298 304 304 302 305 306 308 310 311 312 313 314 313
303 303 299 298 303 302 302 305 307 308 309 307 300 301 304 299 297 297 296 294 293 292 291 290 290 290 290 291 292 292 294 297 302 303 305 306 307 308 308 309 310 312 313 313
304 306 304 298 302 303 301 302 304 305 305 304 302 303 302 297 298 296 295 293 292 291 290 289 290 289 290 290 291 291 293 295 298 301 305 307 308 307 308 309 309 310 311 313
303 304 297 297 299 300 303 305 299 301 300 300 303 302 301 298 298 296 295 293 291 290 289 289 288 288 289 289 290 290 292 293 295 297 300 302 303 305 307 309 310 310 310 309
299 302 300 299 299 299 303 298 303 302 304 303 303 304 303 299 297 296 295 293 291 289 288 288 288 287 288 288 288 289 290 291 293 295 296 298 299 300 302 305 307 309 310 308
298 298 303 296 301 304 302 303 301 300 301 303 302 301 299 297 296 295 294 292 290 289 288 287 287 287 287 287 287 287 288 289 291 292 293 295 296 298 298 301 304 307 309 308
298 300 301 304 299 298 301 303 300 300 303 301 301 301 299 297 296 295 294 292 290 289 288 287 286 286 286 286 287 286 287 288 289 290 291 292 293 294 297 299 302 303 306 307
298 300 302 303 299 297 299 301 300 299 298 300 301 301 301 298 297 295 294 291 290 289 288 287 286 285 285 285 286 286 287 287 288 288 289 290 290 292 294 296 299 299 302 303
296 298 299 301 302 297 297 298 299 299 301 302 302 302 300 298 297 294 294 292 290 289 288 287 286 285 284 284 285 285 286 286 286 287 288 288 288 290 291 293 295 296 300 296
297 298 296 297 298 297 298 296 295 297 298 299 302 297 298 297 296 294 294 292 290 290 288 286 285 284 283 283 283 284 284 285 285 286 286 287 288 288 290 291 292 292 293 294
294 297 290 293 293 293 295 295 297 295 296 297 296 295 296 297 296 295 294 291 289 288 287 285 284 283 282 282 282 283 284 284 284 285 285 286 286 287 288 288 290 290 289 289
294 296 294 298 291 292 299 297 297 298 297 297 298 302 296 294 295 294 293 290 288 287 285 284 283 282 281 280 281 282 283 283 284 284 284 285 285 286 286 287 287 287 287 288
291 292 293 297 294 301 305 296 298 300 300 298 298 294 294 293 293 292 291 288 288 286 284 282 281 279 279 279 281 281 281 282 283 284 284 284 285 285 285 285 285 286 286 286
292 294 296 295 298 300 297 294 295 296 300 300 299 297 293 292 291 293 290 287 286 284 282 281 279 278 278 278 280 281 280 281 282 282 283 284 284 284 284 284 284 285 285 285
290 291 294 290 295 299 297 295 294 294 299 297 297 296 292 292 292 292 289 286 284 282 281 280 279 278 277 277 279 280 279 279 279 281 282 284 284 284 284 284 284 285 285 285
291 291 293 295 295 297 296 294 292 299 298 294 295 292 291 291 292 289 287 284 282 281 280 279 279 277 275 275 277 279 278 276 278 281 282 282 282 283 284 284 285 285 285 285
292 293 290 294 295 296 292 291 296 298 291 293 293 291 291 290 289 288 286 284 283 282 280 278 278 276 274 274 275 276 276 277 280 282 282 281 283 284 284 285 285 285 285 284
292 295 296 293 295 293 292 296 295 292 293 291 292 291 290 289 288 287 286 285 283 281 280 277 277 277 275 274 274 275 275 276 279 281 281 282 283 284 284 284 285 285 285 285
287 287 290 290 295 290 290 292 292 292 291 291 291 290 290 289 288 287 286 285 283 280 279 277 276 276 275 274 274 274 275 277 278 279 279 281 282 283 283 282 283 283 284 283
290 286 290 290 291 292 291 290 291 292 290 288 289 289 289 289 288 287 286 285 283 280 278 277 276 276 275 275 275 275 276 276 277 278 278 280 282 282 282 282 281 281 281 281
286 291 290 294 295 295 295 294 291 290 290 289 288 286 287 288 287 287 286 285 283 281 279 277 276 276 275 275 275 275 276 276 276 277 277 278 281 282 282 281 280 279 279 279
Wind_Speed
3 1 2 4 5 5 9 12 15 19 16 12 14 22 17 3 1 2 4 10 13 18 24 32 30 32 31 27 27 27 27 26 24 22 22 22 21 20 22 17 19 15 23 13
0 1 2 4 5 8 10 11 12 11 5 18 14 17 17 6 3 4 8 13 19 23 24 25 30 31 28 28 28 27 27 26 25 23 22 21 20 18 18 17 17 21 21 20
2 3 2 3 6 9 13 5 15 20 25 9 10 12 6 9 6 6 9 18 22 24 23 21 24 30 30 28 27 28 30 30 28 26 23 22 22 19 15 16 17 13 14 13
4 1 3 6 4 7 6 13 20 18 9 5 6 7 12 3 5 2 17 21 23 23 22 19 23 26 29 27 26 29 32 30 29 25 23 24 20 18 18 19 16 13 9 12
3 3 4 3 2 5 8 19 19 8 5 8 3 5 6 2 4 14 21 24 26 24 23 23 22 28 27 26 25 30 30 31 27 23 21 22 21 17 16 15 14 14 9 12
5 2 3 3 10 4 12 12 12 5 3 5 4 6 7 6 8 20 25 26 25 24 22 21 29 29 26 24 24 28 29 30 22 18 19 21 18 16 14 13 14 17 13 11
3 2 1 2 6 3 10 10 5 3 4 9 4 8 4 4 9 19 24 25 24 21 20 19 20 23 25 24 24 27 25 26 20 12 13 14 15 13 13 14 13 13 15 16
3 2 3 1 2 3 3 3 3 6 9 12 9 5 6 2 10 19 19 21 21 21 19 19 17 22 23 25 24 28 23 22 20 17 9 2 5 9 12 14 14 15 9 13
3 3 3 1 1 1 2 2 2 5 6 4 3 6 13 3 14 18 20 22 21 21 19 19 20 23 23 24 25 25 22 19 17 14 11 5 6 8 9 11 10 12 10 10
1 6 2 2 2 1 2 2 2 3 6 8 9 11 6 15 19 17 19 19 19 19 18 18 16 23 24 23 24 23 20 17 16 14 11 9 9 10 10 10 10 12 11 10
2 1 2 2 6 2 3 3 2 2 4 4 7 5 2 7 12 16 17 17 17 17 17 16 16 23 23 21 21 22 21 21 19 18 15 12 10 10 11 11 9 7 10 8
4 2 5 3 3 0 3 3 3 3 1 6 7 9 5 3 8 13 14 16 16 15 16 15 17 21 22 22 21 20 18 17 17 15 13 11 10 9 10 10 8 7 6 10
4 3 5 4 2 2 4 6 8 4 4 11 6 6 6 4 11 12 13 14 14 15 15 14 13 15 19 22 21 20 18 16 14 13 11 9 8 6 6 6 7 6 2 9
3 4 6 8 6 2 7 9 10 9 6 11 14 19 16 6 8 10 13 12 13 13 14 14 14 13 20 22 21 21 19 17 14 11 9 9 8 3 1 3 4 5 8 8
3 5 6 14 16 15 16 15 13 15 17 8 15 8 15 12 7 5 10 10 12 13 14 14 14 14 20 21 22 21 20 20 15 11 12 9 7 8 8 6 9 15 15 16
4 2 3 6 6 6 12 17 16 15 16 19 21 24 13 2 3 6 8 10 11 12 13 14 14 15 19 22 23 22 21 19 17 18 17 13 13 17 17 18 22 19 24 23
5 3 1 6 4 9 8 8 10 7 9 7 8 6 5 3 5 4 7 8 10 11 11 12 13 15 20 23 24 23 20 20 20 19 21 21 22 23 23 26 24 26 25 33
5 3 1 5 5 4 1 3 3 8 12 15 13 5 5 4 2 4 4 6 9 9 9 10 14 18 20 22 26 25 23 25 24 24 26 25 26 26 27 28 22 20 25 35
6 4 2 4 4 9 8 5 5 5 7 8 17 8 5 4 2 7 5 3 5 6 8 9 13 16 17 19 24 24 27 26 28 26 28 27 29 29 27 27 22 22 30 33
4 5 4 2 4 5 2 4 2 1 6 4 7 7 8 7 3 2 5 2 3 5 8 9 9 12 15 16 16 17 21 24 26 28 26 28 27 25 25 22 21 21 26 28
5 5 11 9 6 9 8 8 4 1 2 6 8 8 10 5 1 6 5 3 2 3 6 8 8 8 11 14 13 14 15 18 18 19 19 18 17 18 18 18 18 21 24 24
10 10 6 5 7 10 10 7 7 0 2 5 8 8 8 5 7 6 6 5 4 2 4 7 8 9 10 12 11 11 13 15 16 17 18 18 19 20 20 20 20 20 19 21
5 7 5 11 7 1 13 2 6 1 1 5 8 8 9 8 7 8 6 6 6 4 3 4 6 7 10 12 13 10 11 12 12 11 15 18 16 16 15 16 16 15 15 14
6 5 4 1 8 18 13 12 9 7 6 5 6 9 10 8 7 6 4 4 5 7 5 3 4 6 8 11 11 10 12 11 11 10 11 14 14 14 16 16 15 14 12 14
2 11 6 7 17 10 17 14 16 12 7 4 3 6 10 7 8 7 6 5 7 8 6 5 2 3 5 7 8 9 9 8 9 9 9 10 12 14 17 18 18 22 18 13
8 13 7 12 13 11 12 4 6 14 15 13 10 5 4 7 8 6 5 10 12 11 8 7 5 4 2 3 4 5 6 6 5 5 6 6 6 7 8 9 13 13 13 14
Wind_Direction
56 112 18 357 357 324 311 309 300 301 314 303 295 296 293 351 174 206 304 324 323 320 319 320 318 314 309 304 300 298 292 287 279 272 260 248 245 240 239 237 243 240 238 250
60 192 49 310 305 314 309 298 297 313 263 322 296 292 294 206 251 290 324 327 322 323 323 324 319 314 312 308 303 299 296 290 278 270 261 257 247 242 245 232 246 241 250 249
290 57 327 290 321 332 328 296 315 310 322 274 296 271 192 214 236 274 314 328 329 328 326 324 321 318 316 313 310 307 300 291 278 269 267 253 248 251 242 234 240 237 240 226
280 101 302 306 284 353 311 347 316 315 322 308 21 291 318 140 239 287 332 332 330 333 329 324 323 319 317 313 311 309 301 290 280 264 254 251 234 233 234 240 243 236 229 238
67 281 289 267 338 340 268 319 304 312 282 312 165 265 326 197 317 330 327 333 338 333 330 324 323 320 315 315 318 313 306 300 280 258 246 244 235 245 250 253 225 238 230 245
259 326 263 313 315 295 311 303 296 249 251 256 103 5 291 9 338 326 331 338 335 330 326 321 320 320 318 320 323 322 315 312 290 252 243 235 237 236 242 254 249 252 257 257
261 204 183 302 324 157 354 331 327 296 288 307 156 311 318 16 323 335 329 330 332 330 326 323 322 322 322 324 325 326 320 322 333 259 230 226 231 238 254 255 256 265 261 258
324 267 187 45 12 310 346 337 1 308 320 312 298 243 317 202 331 335 328 333 332 333 329 326 324 322 323 324 324 328 325 329 343 338 354 351 270 257 261 258 255 257 284 254
298 253 142 152 342 242 96 312 16 268 254 268 236 253 271 224 340 334 336 339 336 335 332 328 328 327 327 326 327 329 330 332 340 342 337 327 308 294 287 276 268 249 264 304
102 288 136 132 207 140 274 73 253 199 299 310 308 295 281 344 335 338 340 341 335 334 333 332 331 329 329 332 332 331 336 339 337 338 343 341 307 302 297 282 268 261 266 288
158 248 156 199 201 184 181 212 213 285 265 302 311 321 83 342 341 342 338 339 336 335 335 335 333 334 335 339 338 338 346 347 345 344 345 337 322 297 294 291 287 257 256 267
176 291 271 263 146 21 225 252 223 268 237 257 272 278 145 16 14 352 339 338 335 335 337 338 339 342 343 346 345 346 347 347 345 341 337 329 320 308 289 275 268 252 238 257
173 205 294 212 148 169 235 227 225 260 280 256 275 277 185 14 10 350 338 340 335 337 340 342 344 347 348 348 350 352 352 350 346 346 345 341 339 332 301 271 243 237 326 237
211 249 243 261 316 348 257 249 228 229 259 269 246 278 293 355 337 342 335 340 336 340 343 345 347 351 351 350 351 354 356 358 354 1 359 5 7 4 4 241 202 142 153 179
232 261 264 264 269 270 267 260 247 234 232 249 272 285 290 312 292 292 301 335 338 345 347 348 348 351 351 353 355 356 1 9 16 17 29 30 51 73 103 128 116 104 126 124
207 272 327 283 277 276 273 261 243 232 249 250 263 279 272 202 274 279 307 335 332 341 345 344 346 349 351 351 352 358 5 12 27 33 35 44 59 82 85 93 91 101 97 107
182 236 285 269 342 314 272 240 203 206 203 211 220 242 151 216 231 286 307 334 323 330 339 342 344 341 344 347 350 356 4 25 31 39 42 47 55 68 71 80 90 88 92 96
161 177 209 290 309 252 289 194 209 226 252 215 255 227 195 231 221 268 249 308 312 325 338 339 333 333 341 346 358 360 12 26 29 37 40 42 53 60 68 74 78 86 95 91
202 187 240 266 274 301 282 185 197 201 291 235 228 243 203 169 251 243 214 253 293 312 324 338 330 334 342 357 355 6 13 20 24 26 34 41 51 55 60 64 61 68 77 81
160 241 223 174 252 257 13 139 143 148 278 158 192 198 168 156 244 102 178 206 289 314 327 342 357 351 350 360 5 10 18 21 14 15 27 51 54 58 63 63 68 72 75 78
168 197 223 218 262 274 259 149 156 195 317 164 182 171 164 191 333 119 144 169 235 311 331 346 4 23 360 355 9 23 19 19 17 34 46 53 60 65 73 68 70 71 76 81
178 172 197 188 219 270 139 119 205 41 122 179 181 176 184 171 151 163 170 180 205 250 317 347 356 8 15 12 10 24 26 16 28 43 54 59 69 74 77 75 71 70 73 74
228 211 188 202 216 102 197 276 211 7 220 196 190 173 187 171 180 180 197 189 203 218 270 329 355 355 10 22 22 17 17 23 36 53 63 63 72 81 83 62 56 62 69 81
227 168 231 155 233 239 236 245 241 220 222 209 202 178 179 185 169 178 179 190 189 210 238 279 341 3 4 11 21 21 12 20 35 49 58 57 53 63 60 58 56 57 62 66
155 155 205 255 271 278 260 235 238 219 204 189 173 185 191 175 180 176 187 189 194 212 211 226 252 326 356 9 14 21 28 32 30 32 43 46 55 65 69 67 62 64 60 64
181 216 212 249 254 241 266 193 217 215 204 193 175 185 193 175 181 176 182 182 190 204 203 207 217 226 281 354 16 23 32 45 64 58 55 65 71 91 101 107 90 82 86 83